Helicity
80 56 41 37 12 12 -4 1 15 23 32 10 26 30 70 61 17 86 98 208 73 97 122 79 66 62 63 121 143 78 77 45 78 79 90 85 96 86 86 90 88 79 87 76 68 64 58
81 58 33 38 35 4 1 10 17 24 26 7 12 25 65 31 30 125 79 201 127 64 61 77 122 72 59 138 42 43 43 55 62 65 99 85 88 95 106 96 88 95 74 61 70 67 83
72 53 28 34 42 6 -2 10 45 -9 75 42 18 -3 16 17 29 148 111 153 104 116 68 38 20 34 114 53 40 39 41 38 49 59 90 95 63 71 72 78 95 88 81 61 55 93 119
72 65 57 39 25 15 -2 7 23 29 19 10 5 4 21 32 77 87 113 178 88 43 86 9 38 33 41 31 23 40 23 35 41 43 50 53 68 89 89 72 69 68 66 96 95 90 98
70 53 48 35 41 20 24 10 -5 2 32 13 31 56 72 90 99 90 80 108 123 145 8 -13 24 39 42 8 20 31 33 33 30 36 51 46 53 82 70 71 58 81 96 88 92 95 102
66 63 66 41 44 29 14 12 15 -8 27 59 98 105 94 124 97 99 215 147 57 45 53 18 31 54 39 28 15 14 16 19 23 26 39 64 74 77 84 77 75 87 96 103 115 129 45
38 55 30 90 73 61 37 1 -0 -0 5 27 84 105 149 235 261 312 74 38 129 154 167 97 83 114 34 5 7 17 7 3 8 40 57 69 76 85 77 70 66 63 45 36 33 32 3
20 36 43 76 65 62 70 27 27 12 31 39 26 35 52 107 117 201 75 64 111 112 150 105 68 42 31 21 12 28 15 -6 -2 28 -25 -35 1 -5 9 14 11 14 -8 -2 23 73 23
-2 8 28 45 68 60 66 57 37 33 47 41 66 46 58 82 87 120 190 167 123 122 116 132 102 69 73 56 37 42 24 -13 -10 -7 -5 -25 -5 13 -0 -9 -8 -11 4 21 32 31 24
3 12 14 34 40 62 65 45 39 37 31 43 32 26 38 129 117 145 147 154 114 80 86 94 88 67 72 73 33 46 -6 -23 -10 -11 -4 2 19 10 2 -16 7 7 21 -1 -2 -27 17
-3 6 25 33 38 38 38 40 40 42 32 42 44 33 -17 -27 46 82 102 110 64 69 66 84 95 73 80 46 -12 -8 7 3 -14 -15 -3 2 12 9 -25 -33 16 -18 -10 27 31 43 28
-15 -3 13 30 26 50 47 42 41 38 43 31 25 44 73 41 35 76 72 75 47 86 21 67 85 79 47 40 21 37 30 28 32 21 31 34 44 36 38 60 74 68 36 13 23 39 12
-4 -14 1 23 46 38 43 40 31 38 55 58 43 29 25 2 -1 25 71 65 85 23 92 41 34 40 35 39 39 40 41 41 35 27 25 54 56 51 71 53 51 66 82 35 81 88 87
29 -4 -13 9 40 52 38 27 4 14 25 52 33 31 25 -7 16 28 70 62 32 59 31 40 32 38 51 38 41 47 47 56 37 38 37 31 49 56 74 68 90 95 88 80 72 96 106
43 29 3 7 26 46 51 31 6 3 8 22 44 24 24 29 19 49 72 -12 44 58 35 33 34 51 42 38 49 51 52 29 20 25 17 30 42 26 70 79 96 87 83 70 58 90 74
58 41 37 19 28 40 58 57 32 3 -8 13 58 60 65 48 36 59 46 60 71 57 32 27 50 49 57 58 53 35 33 20 23 41 27 41 54 34 27 77 95 78 52 86 75 28 38
56 36 33 36 31 32 37 64 63 21 -5 26 34 47 37 35 60 42 48 40 38 41 35 38 44 59 60 43 43 34 22 20 21 34 43 51 65 63 54 107 101 92 88 89 75 78 76
60 46 29 16 27 29 28 40 63 39 10 4 31 47 17 28 36 43 39 25 34 28 26 27 35 40 35 29 28 36 38 41 22 26 51 47 89 124 82 68 49 60 82 66 65 88 94
58 55 36 24 9 16 26 32 34 35 -12 2 24 31 20 23 37 24 19 19 26 26 27 31 34 24 11 22 45 56 60 21 43 60 75 86 115 113 105 93 82 104 115 84 67 78 118
46 51 48 18 15 3 1 15 20 20 14 -11 12 22 15 1 21 31 41 41 44 20 28 21 23 15 18 42 41 79 92 48 52 73 70 91 128 165 158 98 106 140 122 131 126 106 113
74 32 41 33 10 -3 -7 -5 7 -1 5 3 -7 -1 -7 5 14 20 31 51 60 59 31 28 28 30 31 67 79 95 68 61 62 65 81 91 111 116 151 161 120 134 111 128 171 147 122
89 36 13 24 22 15 -10 13 26 10 -33 -20 -2 7 -5 -14 -2 12 18 39 61 43 43 23 42 50 46 69 68 80 89 88 90 98 96 99 98 81 129 62 87 131 98 102 130 125 151
91 49 20 7 -17 19 45 -4 26 42 18 18 -16 -31 -10 -1 -4 7 -1 7 29 24 30 29 41 56 70 74 60 52 65 72 89 118 118 139 118 76 106 62 62 77 73 120 128 147 159
103 64 23 25 11 -20 5 28 36 31 37 34 29 29 -25 -15 -2 9 -13 10 13 29 3 -8 39 42 -0 -25 -16 17 69 99 117 123 135 153 153 126 129 41 77 77 79 92 105 76 147
61 73 32 13 27 32 -12 4 13 38 35 33 42 33 -7 -29 -28 -23 -0 5 9 16 9 12 12 11 57 -59 23 27 58 51 48 73 77 106 112 106 92 106 87 46 72 76 78 49 68
42 63 50 25 27 37 53 42 19 33 69 53 45 55 36 -39 -31 -30 -38 -18 -0 -6 -15 42 77 76 85 78 81 48 20 65 60 79 114 111 82 115 118 90 74 93 91 73 76 66 78
68 64 50 51 27 34 50 62 56 64 68 91 61 62 65 3 9 25 -7 -8 26 21 -7 18 62 82 114 40 11 17 34 122 69 95 103 133 122 133 125 122 52 94 99 84 86 118 81
44 66 63 59 82 35 49 62 70 81 105 106 114 98 87 54 27 74 80 76 66 68 60 62 28 49 55 33 27 13 6 -7 9 61 75 102 104 118 129 122 57 113 142 78 108 96 36
48 45 74 83 82 81 49 57 79 93 104 130 119 126 142 97 64 41 56 62 66 60 77 81 99 102 42 29 25 16 55 -0 4 19 44 38 81 106 113 108 125 64 59 94 124 82 60
Wind_Speed
80 81 81 75 57 56 64 59 16 17 11 6 7 9 17 19 19 28 32 33 23 16 9 17 14 12 20 17 20 29 29 29 32 29 29 29 33 35 38 39 39 45 46 48 48 51 57
80 79 78 81 77 74 74 68 29 27 17 16 9 14 12 18 22 25 30 33 31 19 11 13 13 19 20 21 24 27 27 29 30 28 30 30 32 31 34 40 43 43 50 56 55 55 57
78 78 79 76 85 78 77 74 72 24 3 10 10 13 21 19 21 28 34 38 31 24 8 5 9 10 17 17 21 23 26 29 31 30 28 31 28 34 33 42 42 46 59 58 56 54 57
82 76 77 77 74 76 55 43 72 45 14 4 20 20 34 35 31 39 42 40 30 27 19 25 23 13 17 20 21 24 26 28 31 32 30 31 29 30 37 37 44 52 54 62 47 51 55
84 75 76 76 73 54 32 13 69 56 30 14 17 24 32 45 40 43 42 44 26 30 24 19 21 13 14 22 21 26 29 30 32 33 34 33 32 35 37 47 54 50 64 63 64 50 58
82 76 70 73 75 69 45 53 65 60 52 29 40 40 26 21 42 47 44 45 40 21 21 17 17 18 19 19 24 26 31 33 34 34 33 36 36 38 42 47 61 60 65 63 66 59 64
80 80 71 71 77 83 83 78 26 57 22 38 34 27 33 30 42 40 48 35 39 24 2 12 11 14 12 18 24 27 32 34 35 36 37 37 37 43 43 43 45 51 58 64 65 61 64
78 79 78 75 70 83 91 89 79 74 49 46 38 52 38 32 44 36 29 28 25 24 9 4 12 13 15 23 21 26 29 30 33 34 36 32 34 36 36 39 43 49 57 61 56 47 58
75 76 77 73 69 69 75 79 73 70 58 51 48 46 41 39 45 29 36 33 31 33 3 7 13 13 19 19 18 22 25 32 35 36 38 36 36 35 38 41 45 47 44 47 51 62 56
70 72 72 72 68 66 62 60 58 57 54 47 46 34 41 46 49 44 41 30 28 31 10 13 18 19 21 25 20 21 34 37 37 36 37 35 35 35 38 41 35 46 21 2 14 20 47
64 64 66 67 64 61 51 47 48 42 40 40 36 41 36 45 57 45 37 26 27 34 4 26 23 26 25 14 37 36 25 25 36 35 36 25 29 31 26 21 20 20 17 20 14 16 16
58 57 60 61 59 51 45 34 28 32 37 33 30 34 42 45 42 33 25 26 32 29 5 21 32 30 13 21 5 26 24 26 26 25 26 25 25 23 22 20 22 17 16 17 21 19 15
53 51 51 55 56 50 39 34 27 21 30 37 36 29 38 38 35 22 22 29 29 6 36 25 31 33 30 29 28 26 23 21 21 21 18 22 28 26 25 18 25 20 11 21 24 23 19
46 46 42 42 43 44 38 30 27 22 26 33 32 35 30 26 26 23 24 34 40 42 44 43 40 35 33 30 29 25 25 25 26 23 23 19 26 26 28 22 21 23 24 25 20 16 9
41 39 39 34 33 32 33 28 21 15 18 25 26 29 29 19 23 25 34 49 55 55 50 48 42 36 32 30 31 29 27 22 22 26 22 20 25 25 24 26 26 24 23 22 21 23 20
40 34 35 32 26 23 22 22 17 12 18 20 28 31 29 19 25 31 42 52 50 49 47 41 36 35 32 30 30 27 24 24 23 26 24 24 23 27 23 27 26 25 19 23 26 12 20
41 27 25 28 25 17 14 14 12 8 14 22 30 39 27 22 31 36 55 51 48 42 39 38 34 33 29 26 27 27 24 25 26 28 28 25 26 24 22 29 27 24 26 26 25 28 22
44 36 18 19 19 15 9 5 3 2 7 27 31 45 27 29 41 43 48 47 41 39 36 34 32 30 29 26 26 26 26 26 28 28 25 26 23 20 24 27 22 21 22 23 24 22 21
37 39 30 13 11 12 10 7 6 7 9 29 35 36 26 31 46 47 45 43 39 39 36 35 33 32 29 27 26 27 26 25 28 26 25 27 27 19 28 30 28 25 28 26 19 23 19
31 31 35 21 10 12 11 11 10 11 14 28 33 37 32 31 35 45 46 42 40 36 35 32 31 30 27 26 28 26 24 24 25 24 23 25 23 22 19 15 16 13 18 20 23 23 22
30 23 25 30 19 13 23 21 19 15 16 25 30 33 34 35 34 35 37 39 39 37 35 33 32 30 27 27 24 26 24 21 22 23 25 22 15 13 14 19 19 19 18 21 21 21 20
24 23 12 14 29 24 18 45 40 31 18 24 29 30 32 32 33 32 31 32 33 32 32 29 29 29 27 24 24 20 21 20 20 24 21 19 14 7 11 13 14 12 17 21 22 21 20
19 17 16 7 29 34 32 23 47 45 38 29 26 28 27 27 28 28 27 27 28 29 28 29 27 25 23 23 25 26 25 23 20 18 16 16 15 8 12 12 10 12 18 22 19 19 18
23 21 15 17 5 35 42 45 46 45 41 31 25 23 24 22 25 25 23 23 24 25 25 28 24 23 23 24 27 24 23 23 24 24 22 16 16 14 7 5 21 25 25 22 16 14 18
20 21 17 16 15 18 26 48 47 45 41 32 26 23 17 16 21 24 25 20 16 14 15 16 21 20 33 39 10 10 16 15 16 16 20 22 16 14 17 12 9 17 24 24 21 18 17
25 20 21 17 21 12 25 41 48 44 37 36 31 26 22 9 11 16 17 18 17 17 14 7 22 27 28 24 22 10 10 27 25 25 34 16 13 12 22 23 23 27 25 26 28 24 28
31 22 23 21 22 24 22 29 37 36 36 36 39 30 31 13 9 7 6 8 12 11 10 9 17 19 24 10 19 18 12 22 9 20 24 23 18 2 4 17 7 17 23 27 29 32 28
57 34 31 23 23 27 33 31 32 33 28 28 30 29 36 28 23 17 17 4 6 5 9 15 13 7 9 12 9 11 16 20 15 7 8 14 24 25 22 24 28 25 25 27 34 32 38
69 59 41 30 27 28 30 32 33 32 31 28 35 30 32 37 43 38 24 21 17 12 10 9 15 16 7 8 9 8 4 13 12 10 19 13 13 10 13 28 33 19 27 30 36 42 43
Wind_Direction
48 48 50 56 72 76 60 66 340 344 331 31 9 279 266 256 270 239 234 227 184 178 216 235 237 262 290 301 295 311 328 323 333 332 320 317 309 306 301 304 306 303 306 305 308 309 306
53 53 54 55 58 60 55 41 9 0 352 32 13 246 276 263 270 241 225 214 201 181 179 232 246 284 289 279 305 314 333 340 339 341 335 326 314 320 312 307 306 310 305 304 307 308 307
55 55 55 60 56 61 61 70 69 15 87 9 225 243 236 278 277 230 211 204 191 180 165 224 237 47 18 316 305 327 339 340 342 342 342 338 335 320 320 309 317 313 305 306 306 309 308
55 58 60 61 64 57 83 97 69 111 131 196 192 233 202 210 217 203 196 186 166 186 185 206 229 303 329 298 302 328 333 347 350 345 345 341 346 336 324 324 317 310 309 306 313 312 312
56 60 61 63 65 76 90 86 63 87 123 175 194 199 197 184 195 183 174 165 154 176 202 231 250 312 325 307 332 325 328 330 333 340 343 344 340 329 326 314 309 311 303 306 308 316 312
58 61 64 67 68 72 86 102 95 76 38 41 36 43 57 105 165 162 140 146 168 180 213 247 281 305 304 318 317 323 326 335 334 334 335 333 332 323 323 315 304 307 306 309 307 314 313
60 61 66 74 73 76 84 93 77 95 81 44 48 98 121 123 128 151 148 163 187 193 241 269 295 30 1 295 292 314 310 310 325 336 326 331 328 321 323 326 324 318 314 310 311 317 315
61 64 68 75 80 78 76 78 85 87 100 118 114 126 115 135 155 170 191 185 194 196 76 20 23 11 265 254 324 306 298 335 347 349 347 348 342 348 349 344 334 328 321 319 324 331 325
62 66 70 75 79 83 83 83 88 92 103 110 121 125 138 146 150 162 160 165 178 184 205 250 222 247 242 253 285 301 305 356 352 352 353 350 352 1 352 345 339 338 334 335 331 327 330
64 66 71 75 78 82 86 91 95 97 102 112 121 127 136 145 147 155 158 179 192 195 205 238 229 232 232 211 335 273 50 31 11 353 2 2 11 7 357 353 4 343 43 137 239 246 348
65 68 70 74 79 81 84 88 93 102 109 115 128 130 137 141 145 150 163 192 204 190 258 200 203 200 198 233 112 44 169 170 15 2 8 346 20 16 240 207 127 194 180 217 197 190 219
65 69 71 74 77 82 83 86 90 103 112 119 127 139 144 148 152 160 184 196 189 187 313 219 184 185 258 182 137 184 185 162 171 189 176 181 141 158 171 197 174 189 224 210 168 153 127
65 70 75 76 77 80 84 86 91 105 121 125 128 133 146 158 167 200 202 183 187 260 176 198 178 171 172 173 175 174 176 177 183 202 206 177 159 153 150 156 138 140 145 146 132 126 115
69 69 76 80 81 80 83 86 93 102 124 133 138 141 152 168 185 206 198 166 156 162 158 161 159 159 159 164 166 172 163 153 156 167 173 181 155 152 136 151 142 129 121 125 144 131 148
71 74 76 84 85 85 86 89 95 103 131 144 149 148 152 188 187 179 157 139 142 146 148 148 149 151 151 153 156 151 155 176 182 164 160 165 175 171 158 158 138 128 115 126 143 116 117
68 77 80 84 92 92 92 91 92 101 135 146 142 143 140 184 175 155 143 139 144 148 146 149 153 153 150 152 152 154 167 170 175 154 169 157 160 183 191 145 164 128 127 124 113 146 119
60 76 87 88 93 105 103 93 87 97 148 152 143 131 146 170 157 143 130 137 144 153 152 147 152 151 162 162 161 155 168 167 147 125 124 133 144 150 164 131 128 135 113 108 116 109 110
49 61 90 102 105 114 140 136 79 90 161 143 142 123 155 160 136 137 136 142 152 151 155 153 153 154 156 177 166 155 150 154 150 132 129 137 153 151 141 119 160 159 126 118 110 119 110
47 48 66 108 137 137 156 200 247 256 174 141 130 138 160 159 126 133 141 145 151 149 150 150 151 152 157 160 158 151 163 163 151 139 136 131 129 127 123 124 125 118 85 92 125 97 129
41 46 47 75 145 178 194 211 234 233 187 143 136 126 142 151 151 135 134 143 146 163 157 162 160 159 159 160 164 160 158 153 152 150 146 129 132 134 136 139 124 144 133 137 105 107 101
31 44 51 49 83 212 250 251 261 243 213 154 143 131 137 133 146 152 149 142 144 148 163 163 155 157 154 145 151 150 155 164 151 148 133 134 140 150 202 227 224 219 208 182 160 157 133
23 32 62 77 44 74 289 327 306 288 193 162 136 135 136 136 142 146 159 161 153 156 159 166 166 156 161 163 166 163 148 144 143 125 128 123 146 163 248 146 134 184 190 180 181 181 190
11 26 39 138 244 344 34 293 328 321 343 75 129 172 147 130 134 137 149 156 163 165 169 177 161 158 173 194 195 197 195 193 176 156 145 136 136 136 128 126 240 160 139 141 135 137 136
360 3 22 28 72 243 289 320 334 335 340 12 43 65 151 140 146 148 142 136 157 161 185 203 163 170 189 211 228 212 206 206 201 195 177 142 117 111 154 180 95 95 94 93 139 153 165
357 350 356 6 20 17 228 290 303 329 350 9 14 21 111 134 158 181 178 161 142 135 159 171 185 183 351 251 147 126 85 100 108 134 165 168 136 107 92 82 224 91 96 89 88 88 109
350 346 338 341 347 6 351 323 302 317 340 347 358 359 6 97 127 131 140 152 165 171 170 42 355 349 355 10 19 102 119 22 36 34 5 67 134 103 46 42 52 54 63 62 56 60 64
341 340 331 325 328 333 338 336 326 326 327 332 326 345 341 358 15 73 106 98 92 95 135 61 22 5 347 146 193 196 184 9 53 16 12 14 20 155 30 18 36 29 37 46 31 27 37
318 329 326 318 318 317 319 322 324 324 331 334 338 332 324 336 329 316 320 337 22 43 14 29 34 56 115 165 146 165 183 186 184 134 57 8 351 349 360 356 357 19 20 7 1 3 356
304 310 317 313 309 311 309 313 313 315 316 324 322 328 323 318 316 319 318 312 316 298 341 356 355 14 117 122 144 126 55 178 187 209 184 203 180 7 335 339 345 353 339 342 338 335 336